TimeHST,TemperatureF,Dew PointF,Humidity,Sea Level PressureIn,VisibilityMPH,Wind Direction,Wind SpeedMPH,Gust SpeedMPH,PrecipitationIn,Events,Conditions,WindDirDegrees,DateUTC
12:54 AM,73.0,71.1,93,29.98,10.0,NNE,3.5,-,N/A,,Clear,20,2013-10-15 10:54:00
1:54 AM,71.1,66.9,87,29.97,10.0,North,4.6,-,N/A,,Clear,10,2013-10-15 11:54:00
2:54 AM,71.1,69.1,93,29.96,10.0,North,5.8,-,N/A,,Clear,350,2013-10-15 12:54:00
3:54 AM,68.0,66.9,96,29.95,10.0,Calm,Calm,-,N/A,,Clear,0,2013-10-15 13:54:00
4:54 AM,70.0,68.0,93,29.95,10.0,North,3.5,-,N/A,,Clear,360,2013-10-15 14:54:00
5:54 AM,71.1,66.9,87,29.96,10.0,ENE,3.5,-,N/A,,Clear,60,2013-10-15 15:54:00
6:54 AM,72.0,66.9,84,29.98,10.0,ENE,3.5,-,N/A,,Clear,60,2013-10-15 16:54:00
7:54 AM,75.9,66.9,74,29.99,10.0,Calm,Calm,-,N/A,,Clear,0,2013-10-15 17:54:00
8:54 AM,80.1,66.9,64,30.01,10.0,NNE,5.8,-,N/A,,Clear,20,2013-10-15 18:54:00
9:54 AM,81.0,71.1,72,30.00,10.0,NNE,9.2,-,N/A,,Clear,30,2013-10-15 19:54:00
10:54 AM,81.0,71.1,72,29.99,10.0,NE,6.9,-,N/A,,Scattered Clouds,40,2013-10-15 20:54:00
11:54 AM,78.1,70.0,76,29.97,10.0,NE,13.8,19.6,N/A,,Scattered Clouds,50,2013-10-15 21:54:00
12:54 PM,81.0,70.0,69,29.94,10.0,North,13.8,21.9,N/A,,Clear,10,2013-10-15 22:54:00
1:54 PM,82.9,71.1,67,29.91,10.0,NNE,12.7,21.9,N/A,,Scattered Clouds,30,2013-10-15 23:54:00
2:54 PM,79.0,70.0,74,29.93,10.0,ENE,13.8,21.9,N/A,,Mostly Cloudy,60,2013-10-16 00:54:00
3:54 PM,81.0,71.1,72,29.93,10.0,NE,12.7,20.7,N/A,,Mostly Cloudy,50,2013-10-16 01:54:00
4:54 PM,80.1,69.1,69,29.94,10.0,NE,10.4,-,N/A,,Scattered Clouds,50,2013-10-16 02:54:00
5:54 PM,75.9,70.0,82,29.96,10.0,NE,9.2,17.3,N/A,,Scattered Clouds,50,2013-10-16 03:54:00
6:54 PM,75.0,70.0,84,29.98,10.0,NNE,11.5,17.3,N/A,,Partly Cloudy,30,2013-10-16 04:54:00
7:54 PM,73.9,69.1,85,29.99,10.0,NNE,9.2,-,N/A,,Clear,20,2013-10-16 05:54:00
8:54 PM,73.9,69.1,85,30.01,10.0,NE,8.1,-,N/A,,Clear,40,2013-10-16 06:54:00
9:54 PM,73.9,68.0,82,30.01,10.0,NNE,4.6,-,N/A,,Clear,30,2013-10-16 07:54:00
10:54 PM,73.0,69.1,87,30.00,10.0,NE,5.8,-,N/A,,Clear,40,2013-10-16 08:54:00
11:54 PM,73.0,69.1,87,29.99,10.0,North,9.2,-,N/A,,Clear,10,2013-10-16 09:54:00